Weather Service Report


773 
ASUS44 KSJT 270411
RWRSJT
WEST CENTRAL TEXAS REGIONAL WEATHER ROUNDUP
NATIONAL WEATHER SERVICE SAN ANGELO TX
1100 PM CDT MON SEP 26 2016

NOTE: "FAIR" INDICATES FEW OR NO CLOUDS BELOW 12,000 FEET WITH NO
SIGNIFICANT WEATHER AND/OR OBSTRUCTIONS TO VISIBILITY.

TXZ049-054-064>066-071>073-076>078-098-099-113-114-127-128-139-140-
154-155-168>170-270500
...LOCATIONS ACROSS WEST CENTRAL TEXAS...
  
CITY           SKY/WX    TMP DP  RH WIND       PRES   REMARKS
SAN ANGELO     CLOUDY    67  52  58 N8        30.22S                  
ABILENE        CLOUDY    61  52  72 N3        30.23R                  
DYESS AFB      MOCLDY    60  50  69 N6        30.22R                  
JUNCTION       CLOUDY    65  32  29 CALM      30.20R                  
SWEETWATER     CLOUDY    61  48  62 N5        30.28R                  
BROWNWOOD      CLOUDY    64  57  77 N5        30.20S                  
COLEMAN        PTCLDY    64  52  64 N5        30.21S                  
SONORA         MOCLDY    64  57  77 N5        30.26S                  
OZONA          CLOUDY    63  50  63 N6        30.26F                  
BRADY          NOT AVBL                                               
$$

TEXAS PANHANDLE/OKLAHOMA PANHANDLE
  
CITY           SKY/WX    TMP DP  RH WIND       PRES   REMARKS
AMARILLO       PTCLDY    56  38  50 S9        30.29F                  
BORGER         CLEAR     62  38  40 S8        30.27S                  
CANADIAN       CLOUDY    52  46  79 CALM      30.24S                  
DALHART        CLEAR     51  38  60 S7        30.30S                  
DUMAS          CLEAR     50  37  61 S8        30.29S                  
GUYMON         NOT AVBL                                               
HEREFORD       MOCLDY    53  42  65 S8        30.31S                  
PAMPA          CLEAR     52  42  70 S9        30.28F                  
PERRYTON       PTCLDY    53  39  57 SW7       30.23F                  
$$

SOUTHERN PANHANDLE/SOUTH PLAINS/ROLLING PLAINS
  
CITY           SKY/WX    TMP DP  RH WIND       PRES   REMARKS
LUBBOCK        CLOUDY    58  41  53 SE3       30.29R                  
SNYDER           N/A     61  44  54 CALM      30.27S                  
CHILDRESS      PTCLDY    60  46  59 CALM      30.25S                  
SEMINOLE       CLOUDY    60  51  71 CALM      30.31S                  
$$

PERMIAN BASIN
  
CITY           SKY/WX    TMP DP  RH WIND       PRES   REMARKS
MIDLAND        CLOUDY    62  45  53 N5        30.27F                  
ODESSA         CLOUDY    62  43  49 NE5       30.28F                  
WINK           CLOUDY    57  55  93 W7        30.28S                  
$$

FAR WEST/SOUTHWEST MOUNTAINS/TRANS PECOS
  
CITY           SKY/WX    TMP DP  RH WIND       PRES   REMARKS
ALPINE         CLOUDY    49  48  99 NE5       30.39S                  
DRYDEN           N/A     60  53  77 NW12      30.24R                  
EL PASO        CLOUDY    57  47  69 N3        30.31R                  
FORT STOCKTON  LGT RAIN  54  53  97 W6        30.31R                  
GUADALUPE PASS CLOUDY    51  35  54 NE25      30.36R                  
MARFA          CLOUDY   N/A N/A N/A NE14      30.35R                  
PECOS          LGT RAIN  57  53  88 CALM      30.28F                  
$$

DALLAS/FORT WORTH METROPLEX
  
CITY           SKY/WX    TMP DP  RH WIND       PRES   REMARKS
DFW AIRPORT    CLOUDY    68  60  75 N8        30.14S                  
FTW MEACHAM    CLOUDY    68  60  75 N6        30.15S                  
DAL-EXECUTIVE  CLOUDY    67  64  90 N5        30.14S                  
GRAND PRAIRIE  CLOUDY    67  58  73 N5        30.16S                  
ADDISON        CLOUDY    67  62  82 CALM      30.17R                  
MESQUITE       CLOUDY    67  61  81 N3        30.14S                  
LANCASTER      CLOUDY    67  63  85 NW3       30.14F                  
$$

NORTH CENTRAL TEXAS
  
CITY           SKY/WX    TMP DP  RH WIND       PRES   REMARKS
SHRMAN/DENISON PTCLDY    62  62 100 CALM      30.17F                  
GAINESVILLE      N/A     61  55  81 CALM      30.19S                  
BRIDGEPORT     CLOUDY    64  57  76 CALM      30.19S                  
DENTON         CLOUDY    66  61  84 N3        30.16S                  
WAXAHACHIE     CLOUDY    65  65  98 N3        30.15F                  
GRANBURY       CLOUDY    68  60  76 CALM      30.17F                  
$$

WESTERN NORTH TEXAS
  
CITY           SKY/WX    TMP DP  RH WIND       PRES   REMARKS
WICHITA FALLS  PTCLDY    58  49  72 N6        30.19S                  
VERNON         CLOUDY    60  46  60 N5        30.23R                  
BRECKENRIDGE     N/A     65  51  61 CALM      30.20S                  
COMANCHE       CLOUDY    65  63  90 CALM      30.19S                  
$$

CENTRAL AND SOUTH CENTRAL TEXAS
  
CITY           SKY/WX    TMP DP  RH WIND       PRES   REMARKS
AUSTIN/BERGSTM CLOUDY    68  63  84 N13       30.12S                  
WACO           CLOUDY    67  63  87 N6        30.13F                  
HILLSBORO      CLOUDY    67  61  80 N8        30.14S                  
TEMPLE         CLOUDY    65  62  90 N9        30.14S                  
KILLEEN-GRAY   CLOUDY    65  61  87 NE8       30.14S                  
FORT HOOD      CLOUDY    64  60  86 N7        30.12F                  
GEORGETOWN     CLOUDY    66  61  82 N7        30.13F                  
LAGO VISTA     CLOUDY    65  63  91 N5        30.15S                  
SAN MARCOS     CLOUDY    66  63  88 N10       30.14S                  
NEW BRAUNFELS  CLOUDY    67  63  87 N10       30.10F                  
RANDOLPH AFB   CLOUDY    67  64  89 N13       30.11S                  
SAN ANTONIO    CLOUDY    67  61  81 N10       30.11F                  
STINSON        CLOUDY    70  62  76 N8        30.09F                  
PLEASANTON     NOT AVBL                                               
LA GRANGE      CLOUDY    70  65  84 N7        30.07F                  
GIDDINGS       CLOUDY    67  63  85 N7        30.13F                  
$$

EAST TEXAS
  
CITY           SKY/WX    TMP DP  RH WIND       PRES   REMARKS
PARIS          CLOUDY    66  59  77 N7        30.15S                  
CLARKSVILLE    NOT AVBL                                               
TYLER          MOCLDY    69  60  73 NE7       30.11S                  
LONGVIEW       CLOUDY    69  57  65 NE12      30.10F                  
PALESTINE      CLOUDY    68  66  94 NW5       30.11F                  
NACOGDOCHES    PTCLDY    72  64  78 N8        30.06F                  
$$

TEXAS HILL COUNTRY AND EDWARDS PLATEAU
  
CITY           SKY/WX    TMP DP  RH WIND       PRES   REMARKS
LLANO          CLOUDY    66  66 100 CALM      30.20F                  
HORSESHOE BAY  CLOUDY    66  60  80 N5        30.16F                  
KERRVILLE      CLOUDY    63  59  87 NW5       30.17S                  
FREDERICKSBRG  CLOUDY    63  58  83 N3        30.18S                  
ROCKSPRINGS    CLOUDY    63  57  82 NE7       30.22S                  
HONDO          CLOUDY    68  61  78 N10       30.13S                  
UVALDE         PTCLDY    66  60  81 CALM      30.14F                  
DEL RIO        CLOUDY    66  61  84 NW10      30.18S                  
$$

SOUTHEAST TEXAS
  
CITY           SKY/WX    TMP DP  RH WIND       PRES   REMARKS
COLLEGE STN    CLOUDY    70  65  84 N8        30.08F                  
CALDWELL       NOT AVBL                                               
CROCKETT       NOT AVBL                                               
BRENHAM        CLOUDY    72  68  88 NW8       30.09S                  
HUNTSVILLE     CLOUDY    73  69  87 VRB5      30.07S                  
CONROE         PTCLDY    72  71  97 N3        30.05S                  
HOUSTON BUSH   MOCLDY    74  72  93 NW6       30.03F                  
HOUSTON HOBBY  CLOUDY    74  72  93 N7        30.01F                  
PERLAND        PTCLDY    77  73  87 N3        30.02F                  
WHARTON        PTCLDY   N/A N/A N/A N8        30.04F HAZE             
$$

THE UPPER TEXAS COAST
  
CITY           SKY/WX    TMP DP  RH WIND       PRES   REMARKS
ORANGE         MOCLDY    73  73 100 CALM      30.03S                  
PORT ARTHUR    CLOUDY    74  72  93 N7        30.01S                  
GALVESTON      PTCLDY    79  75  87 N9        30.01F                  
ANGLETON       MOCLDY    75  73  93 N5        30.01F                  
BAY CITY       MOCLDY    74  73  95 N5        30.03S FOG              
$$

TEXAS COASTAL BEND, RIO GRANDE PLAINS DEEP SOUTH TEXAS
  
CITY           SKY/WX    TMP DP  RH WIND       PRES   REMARKS
VICTORIA       MOCLDY    71  69  93 N10       30.05S                  
BEEVILLE       CLOUDY    73  71  96 N12G21    30.06S                  
ROCKPORT       CLOUDY    76  72  87 N16       30.02R                  
PORT ARANSAS   CLOUDY    78  74  89 N9        30.01S                  
PORT LAVACA    NOT AVBL                                               
CORPUS CHRISTI CLOUDY    77  73  87 N14       30.03R                  
KINGSVILLE NAS CLOUDY    75  75 100 N12       30.02S                  
COTULLA        LGT RAIN  72  65  78 NE10      30.10R                  
LAREDO         RAIN      71  69  93 NW13      30.08S FOG              
BROWNSVILLE    CLEAR     80  75  84 NE6       29.98S                  
PORT ISABEL    PTCLDY    81  74  79 NE9       29.97S                  
HEBBRONVILLE   CLOUDY    74  71  92 NE6       30.07S                  
MCALLEN        CLOUDY    80  75  84 N7        30.01R                  
WESLACO        MOCLDY    77  74  90 N5        29.99S                  
FALFURRIAS     CLOUDY    76  72  88 N5        30.03R                  
EDINBURG       CLOUDY    79  74  86 N7        30.01S                  
$$
  

Return to Home page


Western Regional Climate Center, wrcc@dri.edu